When you browse on this site, cookies collect data to enhance your experience and personalize the content and advertising you see.
Visit our Privacy Policy to learn more. By continuing to use the site, you agree to this use of cookies and data.
  • In Sweden
  • List of Countries
  • For 7 days
  • Water Temperature
  • Satellite Maps
  • Weather Map
  • Weather Widgets
  • user-avatar
    Login

    Hourly Weather Tonton

    Today, 11 December, Tuesday

    Time Temperature Precipitation Wind Pressure Humidity
    00:00 +7°C° 0 mm 1 mps 768 mmHg 92%
    01:00 +7°C° 0 mm 1 mps 768 mmHg 92%
    02:00 +6°C° 0 mm 2 mps 767 mmHg 92%
    03:00 +6°C° 0 mm 2 mps 767 mmHg 93%
    04:00 +6°C° 0 mm 2 mps 767 mmHg 93%
    05:00 +6°C° 0 mm 2 mps 766 mmHg 93%
    06:00 +6°C° 0 mm 2 mps 766 mmHg 92%
    07:00 +5°C° 0 mm 3 mps 766 mmHg 92%
    08:00 +7°C° 0 mm 3 mps 766 mmHg 91%
    09:00 +6°C° 0 mm 4 mps 766 mmHg 91%
    10:00 +7°C° 0 mm 4 mps 766 mmHg 88%
    11:00 +8°C° 0 mm 5 mps 765 mmHg 85%
    12:00 +9°C° 0 mm 6 mps 765 mmHg 81%
    13:00 +9°C° 0 mm 6 mps 765 mmHg 82%
    14:00 +9°C° 0 mm 6 mps 764 mmHg 83%
    15:00 +8°C° 0 mm 6 mps 764 mmHg 84%
    16:00 +8°C° 0 mm 6 mps 764 mmHg 85%
    17:00 +7°C° 0 mm 5 mps 763 mmHg 87%
    18:00 +7°C° 0 mm 5 mps 763 mmHg 88%
    19:00 +7°C° 0 mm 6 mps 763 mmHg 88%
    20:00 +7°C° 0 mm 6 mps 762 mmHg 87%
    21:00 +7°C° 0 mm 6 mps 762 mmHg 87%
    22:00 +8°C° 0.1 mm 6 mps 762 mmHg 87%
    23:00 +8°C° 0.1 mm 6 mps 762 mmHg 88%

    Tomorrow, 12 December, Wednesday

    Time Temperature Precipitation Wind Pressure Humidity
    00:00 +8°C° 0.1 mm 6 mps 761 mmHg 88%
    01:00 +8°C° 0.5 mm 6 mps 761 mmHg 89%
    02:00 +8°C° 0.5 mm 6 mps 761 mmHg 90%
    03:00 +8°C° 0.5 mm 6 mps 761 mmHg 92%
    04:00 +8°C° 0.3 mm 6 mps 761 mmHg 92%
    05:00 +8°C° 0.3 mm 6 mps 761 mmHg 92%
    06:00 +8°C° 0.3 mm 6 mps 761 mmHg 93%
    07:00 +8°C° 0.1 mm 6 mps 761 mmHg 93%
    08:00 +8°C° 0.1 mm 5 mps 761 mmHg 92%
    09:00 +8°C° 0.1 mm 5 mps 761 mmHg 92%
    10:00 +8°C° 0.1 mm 5 mps 761 mmHg 91%
    11:00 +8°C° 0.1 mm 5 mps 761 mmHg 89%
    12:00 +8°C° 0.1 mm 6 mps 761 mmHg 88%
    13:00 +8°C° 0.1 mm 6 mps 761 mmHg 87%
    14:00 +8°C° 0.1 mm 6 mps 760 mmHg 87%
    15:00 +8°C° 0.1 mm 6 mps 760 mmHg 87%
    16:00 +8°C° 0.1 mm 7 mps 760 mmHg 87%
    17:00 +6°C° 0.1 mm 7 mps 759 mmHg 88%
    18:00 +6°C° 0.1 mm 7 mps 759 mmHg 88%
    19:00 +6°C° 0 mm 8 mps 758 mmHg 87%
    20:00 +5°C° 0 mm 8 mps 758 mmHg 86%
    21:00 +5°C° 0 mm 8 mps 757 mmHg 85%
    22:00 +5°C° 0.1 mm 8 mps 757 mmHg 84%
    23:00 +5°C° 0.1 mm 9 mps 757 mmHg 83%

    Day after tomorrow, 13 December, Thursday

    Time Temperature Precipitation Wind Pressure Humidity
    00:00 +5°C° 0.1 mm 9 mps 756 mmHg 82%
    01:00 +5°C° 0 mm 9 mps 756 mmHg 82%
    02:00 +3°C° 0 mm 9 mps 755 mmHg 81%
    03:00 +3°C° 0 mm 9 mps 755 mmHg 80%
    04:00 +3°C° 0.2 mm 9 mps 754 mmHg 80%
    05:00 +3°C° 0.2 mm 9 mps 754 mmHg 80%
    06:00 +3°C° 0.2 mm 9 mps 754 mmHg 80%
    07:00 +3°C° 0.3 mm 9 mps 754 mmHg 80%
    08:00 +3°C° 0.3 mm 9 mps 754 mmHg 80%
    09:00 +3°C° 0.3 mm 9 mps 755 mmHg 80%
    10:00 +3°C° 0.3 mm 9 mps 755 mmHg 80%
    11:00 +3°C° 0.3 mm 9 mps 755 mmHg 79%
    12:00 +3°C° 0.3 mm 9 mps 755 mmHg 79%
    13:00 +3°C° 0.1 mm 9 mps 756 mmHg 79%
    14:00 +4°C° 0.1 mm 8 mps 756 mmHg 79%
    15:00 +4°C° 0.1 mm 8 mps 757 mmHg 79%
    16:00 +2°C° 0 mm 8 mps 758 mmHg 80%
    17:00 +2°C° 0 mm 8 mps 758 mmHg 80%
    18:00 +3°C° 0 mm 7 mps 759 mmHg 81%
    19:00 +2°C° 0 mm 7 mps 759 mmHg 81%
    20:00 +2°C° 0 mm 7 mps 760 mmHg 82%
    21:00 +2°C° 0 mm 6 mps 760 mmHg 82%
    22:00 +1°C° 0 mm 6 mps 761 mmHg 83%
    23:00 +1°C° 0 mm 5 mps 761 mmHg 84%

    14 December, Friday

    Time Temperature Precipitation Wind Pressure Humidity
    00:00 +1°C° 0 mm 5 mps 762 mmHg 85%
    01:00 0°C° 0 mm 5 mps 762 mmHg 85%
    02:00 0°C° 0 mm 5 mps 762 mmHg 86%
    03:00 0°C° 0 mm 5 mps 762 mmHg 86%
    04:00 0°C° 0 mm 5 mps 762 mmHg 86%
    05:00 0°C° 0 mm 5 mps 762 mmHg 85%
    06:00 -1°C° 0 mm 5 mps 762 mmHg 85%
    07:00 0°C° 0 mm 5 mps 763 mmHg 83%
    08:00 0°C° 0 mm 5 mps 763 mmHg 82%
    09:00 0°C° 0 mm 4 mps 763 mmHg 81%
    10:00 +1°C° 0 mm 4 mps 763 mmHg 79%
    11:00 +2°C° 0 mm 5 mps 764 mmHg 76%
    12:00 +3°C° 0 mm 5 mps 764 mmHg 74%
    13:00 +3°C° 0 mm 5 mps 763 mmHg 75%
    14:00 +4°C° 0 mm 4 mps 763 mmHg 76%
    15:00 +4°C° 0 mm 4 mps 763 mmHg 78%
    16:00 +4°C° 0 mm 4 mps 763 mmHg 79%
    17:00 +2°C° 0 mm 5 mps 763 mmHg 81%
    18:00 +2°C° 0 mm 5 mps 763 mmHg 83%
    19:00 +2°C° 0 mm 5 mps 763 mmHg 83%
    20:00 +2°C° 0 mm 5 mps 763 mmHg 83%
    21:00 +2°C° 0 mm 6 mps 763 mmHg 83%
    22:00 +3°C° 0.2 mm 6 mps 762 mmHg 84%
    23:00 +3°C° 0.2 mm 6 mps 762 mmHg 85%

    15 December, Saturday

    Time Temperature Precipitation Wind Pressure Humidity
    00:00 +4°C° 0.2 mm 6 mps 762 mmHg 85%
    01:00 +4°C° 0.1 mm 7 mps 761 mmHg 87%
    02:00 +5°C° 0.1 mm 7 mps 760 mmHg 89%
    03:00 +5°C° 0.1 mm 8 mps 760 mmHg 91%
    04:00 +6°C° 0.1 mm 8 mps 759 mmHg 91%
    05:00 +6°C° 0.1 mm 8 mps 758 mmHg 92%
    06:00 +6°C° 0.1 mm 9 mps 758 mmHg 92%
    07:00 +7°C° 0.3 mm 9 mps 757 mmHg 92%
    08:00 +7°C° 0.3 mm 10 mps 757 mmHg 93%
    09:00 +8°C° 0.3 mm 10 mps 756 mmHg 93%
    10:00 +9°C° 1.6 mm 10 mps 756 mmHg 93%
    11:00 +9°C° 1.6 mm 10 mps 755 mmHg 93%
    12:00 +11°C° 1.6 mm 10 mps 754 mmHg 94%
    13:00 +12°C° 0.7 mm 10 mps 753 mmHg 93%
    14:00 +12°C° 0.7 mm 10 mps 753 mmHg 92%
    15:00 +13°C° 0.7 mm 10 mps 752 mmHg 91%
    16:00 +13°C° 0.4 mm 10 mps 751 mmHg 91%
    17:00 +13°C° 0.4 mm 11 mps 751 mmHg 91%
    18:00 +13°C° 0.4 mm 11 mps 750 mmHg 91%
    19:00 +12°C° 0.5 mm 11 mps 750 mmHg 89%
    20:00 +12°C° 0.5 mm 11 mps 750 mmHg 86%
    21:00 +11°C° 0.5 mm 10 mps 751 mmHg 84%
    22:00 +9°C° 0 mm 10 mps 752 mmHg 83%
    23:00 +8°C° 0 mm 9 mps 753 mmHg 82%

    16 December, Sunday

    Time Temperature Precipitation Wind Pressure Humidity
    00:00 +7°C° 0 mm 8 mps 754 mmHg 81%
    01:00 +8°C° 0 mm 7 mps 754 mmHg 82%
    02:00 +7°C° 0 mm 6 mps 755 mmHg 83%
    03:00 +7°C° 0 mm 5 mps 756 mmHg 84%
    04:00 +6°C° 0 mm 5 mps 756 mmHg 85%
    05:00 +6°C° 0 mm 5 mps 756 mmHg 87%
    06:00 +6°C° 0 mm 4 mps 757 mmHg 88%
    07:00 +6°C° 0.2 mm 4 mps 757 mmHg 88%
    08:00 +6°C° 0.2 mm 5 mps 757 mmHg 88%
    09:00 +7°C° 0.2 mm 5 mps 757 mmHg 88%
    10:00 +7°C° 0.1 mm 5 mps 757 mmHg 84%
    11:00 +8°C° 0.1 mm 5 mps 758 mmHg 81%
    12:00 +9°C° 0.1 mm 5 mps 758 mmHg 78%
    13:00 +9°C° 0 mm 5 mps 757 mmHg 79%
    14:00 +10°C° 0 mm 4 mps 757 mmHg 81%
    15:00 +8°C° 0 mm 4 mps 756 mmHg 82%
    16:00 +8°C° 0 mm 4 mps 756 mmHg 84%
    17:00 +7°C° 0 mm 5 mps 756 mmHg 87%
    18:00 +7°C° 0 mm 5 mps 756 mmHg 89%
    19:00 +7°C° 0 mm 5 mps 755 mmHg 89%
    20:00 +7°C° 0 mm 5 mps 755 mmHg 90%
    21:00 +7°C° 0 mm 5 mps 755 mmHg 90%
    22:00 +7°C° 0.3 mm 5 mps 754 mmHg 90%
    23:00 +7°C° 0.3 mm 6 mps 753 mmHg 91%
    Show more